Location: Burla
(50.9568°N, 10.4983°E)
Time: 16:27:27
(UTC+00:00)

Cosmos 1763 Rocket - Pass Details

Date: 18 January 2026
Orbit: 729 x 773 km, 74.0° (Epoch: 16 February)

Event Time Altitude Azimuth Distance (km) Brightness Sun altitude
Exits shadow 06:10:50 - 318° (NW) 2,339 5.5 -9.4°
Reaches altitude 10° 06:11:08 10° 316° (NW) 2,239 5.4 -9.4°
Maximum altitude 06:15:23 28° 259° (W) 1,366 4.4 -8.8°
Drops below altitude 10° 06:19:38 10° 202° (SSW) 2,239 5.9 -8.1°
Sets 06:22:15 0° 191° (S) 3,163 6.9 -7.8°
